CEB991 RPLL-RPMR

Flight info

Callsign CEB991
Flight time N/A
Altitude 39000
Route VERDE2R VERDE A461 SAJ W3 IOO B472 COT W19 MELBY MELBY3P
Aircraft A339/H-SADE1E2E3GHIJ3J5M1P2RWXY/LB2D1

Departure

Time 2026-05-01 11:10
Airport Ninoy Aquino International Airport (RPLL)

Arrival

Time N/A
Airport General Santos International Airport (RPMR)
Time Latitude Longitude Altitude Speed Heading
2026-05-01 09:34 14.51747 121.01417 93 ft 0 kts 46°
2026-05-01 10:51 14.51742 121.01412 92 ft 2 kts 46°
2026-05-01 10:52 14.51732 121.01401 92 ft 2 kts 46°
2026-05-01 10:52 14.51721 121.01390 92 ft 2 kts 46°
2026-05-01 10:52 14.51711 121.01379 93 ft 2 kts 46°
2026-05-01 10:52 14.51701 121.01366 93 ft 2 kts 69°
2026-05-01 10:53 14.51698 121.01351 93 ft 2 kts 90°
2026-05-01 10:53 14.51700 121.01336 93 ft 2 kts 111°
2026-05-01 10:53 14.51707 121.01323 93 ft 1 kts 131°
2026-05-01 10:53 14.51711 121.01318 93 ft 0 kts 135°
2026-05-01 10:54 14.51712 121.01318 93 ft 0 kts 135°
2026-05-01 10:59 14.51708 121.01321 92 ft 1 kts 137°
2026-05-01 10:59 14.51699 121.01325 92 ft 1 kts 169°
2026-05-01 10:59 14.51685 121.01321 92 ft 3 kts 199°
2026-05-01 11:00 14.51658 121.01313 92 ft 4 kts 193°
2026-05-01 11:00 14.51623 121.01318 92 ft 6 kts 150°
2026-05-01 11:00 14.51586 121.01352 92 ft 7 kts 135°
2026-05-01 11:00 14.51544 121.01394 92 ft 8 kts 135°
2026-05-01 11:01 14.51498 121.01442 92 ft 10 kts 135°
2026-05-01 11:01 14.51446 121.01497 92 ft 10 kts 134°
2026-05-01 11:01 14.51392 121.01555 92 ft 11 kts 134°
2026-05-01 11:01 14.51333 121.01617 92 ft 12 kts 138°
2026-05-01 11:02 14.51269 121.01679 92 ft 13 kts 135°
2026-05-01 11:02 14.51203 121.01746 92 ft 13 kts 135°
2026-05-01 11:02 14.51137 121.01816 92 ft 13 kts 135°
2026-05-01 11:02 14.51069 121.01887 92 ft 10 kts 134°
2026-05-01 11:03 14.51014 121.01921 92 ft 8 kts 182°
2026-05-01 11:03 14.50981 121.01883 92 ft 8 kts 240°
2026-05-01 11:03 14.50950 121.01826 92 ft 9 kts 240°
2026-05-01 11:03 14.50915 121.01762 92 ft 10 kts 240°
2026-05-01 11:04 14.50876 121.01691 92 ft 11 kts 239°
2026-05-01 11:04 14.50834 121.01617 92 ft 12 kts 240°
2026-05-01 11:04 14.50790 121.01537 92 ft 13 kts 240°
2026-05-01 11:04 14.50744 121.01453 92 ft 13 kts 240°
2026-05-01 11:05 14.50696 121.01366 92 ft 14 kts 239°
2026-05-01 11:05 14.50645 121.01276 92 ft 14 kts 240°
2026-05-01 11:05 14.50592 121.01181 92 ft 15 kts 240°
2026-05-01 11:05 14.50539 121.01085 92 ft 15 kts 240°
2026-05-01 11:06 14.50484 121.00987 92 ft 16 kts 240°
2026-05-01 11:06 14.50428 121.00884 92 ft 16 kts 240°
2026-05-01 11:06 14.50371 121.00782 92 ft 16 kts 240°
2026-05-01 11:07 14.50255 121.00573 92 ft 17 kts 239°
2026-05-01 11:07 14.50194 121.00467 92 ft 17 kts 241°
2026-05-01 11:07 14.50136 121.00359 92 ft 17 kts 240°
2026-05-01 11:07 14.50076 121.00252 92 ft 17 kts 240°
2026-05-01 11:08 14.50016 121.00144 92 ft 17 kts 241°
2026-05-01 11:08 14.49960 121.00043 92 ft 13 kts 240°
2026-05-01 11:08 14.49857 120.99978 92 ft 9 kts 153°
2026-05-01 11:09 14.49806 121.00024 92 ft 10 kts 106°
2026-05-01 11:09 14.49829 121.00095 92 ft 10 kts 60°
2026-05-01 11:09 14.49892 121.00208 92 ft 44 kts 60°
2026-05-01 11:10 14.50620 121.01516 102 ft 157 kts 61°
2026-05-01 11:10 14.51193 121.02514 518 ft 166 kts 59°
2026-05-01 11:10 14.51758 121.03528 1145 ft 165 kts 62°
2026-05-01 11:10 14.52290 121.04550 1781 ft 164 kts 62°
2026-05-01 11:11 14.52861 121.05605 2175 ft 175 kts 60°
2026-05-01 11:11 14.53498 121.06741 2492 ft 191 kts 61°
2026-05-01 11:11 14.54185 121.07966 2888 ft 202 kts 61°
2026-05-01 11:11 14.54874 121.09210 3444 ft 204 kts 60°
2026-05-01 11:12 14.55574 121.10482 4028 ft 204 kts 60°
2026-05-01 11:12 14.56227 121.11768 4571 ft 206 kts 69°
2026-05-01 11:12 14.56397 121.13241 5078 ft 212 kts 94°
2026-05-01 11:12 14.55916 121.14707 5466 ft 226 kts 120°
2026-05-01 11:13 14.54861 121.15992 5761 ft 244 kts 131°
2026-05-01 11:13 14.53614 121.17261 6064 ft 260 kts 133°
2026-05-01 11:13 14.52285 121.18593 6372 ft 276 kts 133°
2026-05-01 11:13 14.50748 121.19829 6769 ft 292 kts 155°
2026-05-01 11:14 14.48730 121.20163 7324 ft 299 kts 186°
2026-05-01 11:14 14.46694 121.19798 7991 ft 301 kts 193°
2026-05-01 11:14 14.44663 121.19314 8641 ft 304 kts 194°
2026-05-01 11:14 14.42591 121.18845 9328 ft 307 kts 193°
2026-05-01 11:15 14.40503 121.18413 10000 ft 309 kts 193°
2026-05-01 11:15 14.38389 121.18009 10577 ft 315 kts 192°
2026-05-01 11:15 14.36180 121.17607 10885 ft 331 kts 192°
2026-05-01 11:15 14.33874 121.17200 11374 ft 340 kts 192°
2026-05-01 11:16 14.31552 121.16801 12081 ft 342 kts 192°
2026-05-01 11:16 14.29212 121.16402 12813 ft 343 kts 192°
2026-05-01 11:16 14.26881 121.16007 13512 ft 344 kts 192°
2026-05-01 11:16 14.24516 121.15606 14211 ft 346 kts 192°
2026-05-01 11:17 14.22136 121.15203 14907 ft 348 kts 192°
2026-05-01 11:17 14.19750 121.14800 15596 ft 350 kts 192°
2026-05-01 11:17 14.17369 121.14398 16275 ft 352 kts 191°
2026-05-01 11:17 14.14947 121.13991 16958 ft 355 kts 191°
2026-05-01 11:18 14.12504 121.13579 17639 ft 357 kts 191°
2026-05-01 11:18 14.10068 121.13169 18304 ft 359 kts 191°
2026-05-01 11:18 14.07620 121.12757 18962 ft 362 kts 191°
2026-05-01 11:18 14.05128 121.12338 19618 ft 364 kts 191°
2026-05-01 11:19 14.02638 121.11920 20251 ft 367 kts 190°
2026-05-01 11:19 14.00131 121.11499 20865 ft 370 kts 190°
2026-05-01 11:19 13.97606 121.11076 21460 ft 373 kts 190°
2026-05-01 11:19 13.95025 121.10643 22045 ft 375 kts 190°
2026-05-01 11:20 13.92453 121.10207 22551 ft 380 kts 189°
2026-05-01 11:20 13.89845 121.09767 22788 ft 392 kts 188°
2026-05-01 11:20 13.87096 121.09309 23091 ft 402 kts 188°
2026-05-01 11:20 13.84338 121.08849 23579 ft 406 kts 188°
2026-05-01 11:21 13.81555 121.08383 24117 ft 408 kts 188°
2026-05-01 11:21 13.78780 121.07918 24637 ft 410 kts 188°
2026-05-01 11:21 13.75956 121.07446 25136 ft 413 kts 188°
2026-05-01 11:21 13.73151 121.06977 25621 ft 415 kts 188°
2026-05-01 11:22 13.70296 121.06499 26096 ft 417 kts 188°
2026-05-01 11:22 13.67427 121.06020 26553 ft 419 kts 188°
2026-05-01 11:22 13.64549 121.05540 26998 ft 422 kts 188°
2026-05-01 11:22 13.61686 121.05061 27427 ft 424 kts 188°
2026-05-01 11:23 13.58765 121.04574 27857 ft 426 kts 188°
2026-05-01 11:23 13.55850 121.04086 28271 ft 428 kts 188°
2026-05-01 11:23 13.52893 121.03625 28676 ft 430 kts 186°
2026-05-01 11:23 13.49911 121.03319 29071 ft 432 kts 183°
2026-05-01 11:24 13.46924 121.03193 29451 ft 434 kts 179°
2026-05-01 11:24 13.43910 121.03207 29830 ft 436 kts 178°
2026-05-01 11:24 13.37887 121.03284 30559 ft 440 kts 178°
2026-05-01 11:25 13.34823 121.03323 30917 ft 441 kts 178°
2026-05-01 11:25 13.29701 121.03378 31490 ft 444 kts 178°
2026-05-01 11:25 13.26608 121.03410 31821 ft 446 kts 178°
2026-05-01 11:26 13.22477 121.03449 32250 ft 449 kts 178°
2026-05-01 11:26 13.16254 121.03507 32870 ft 452 kts 178°
2026-05-01 11:26 13.13103 121.03537 33171 ft 454 kts 178°
2026-05-01 11:27 13.09950 121.03567 33459 ft 456 kts 178°
2026-05-01 11:27 13.06776 121.03599 33675 ft 459 kts 179°
2026-05-01 11:27 13.03596 121.03633 33820 ft 464 kts 179°
2026-05-01 11:27 13.00343 121.03671 33981 ft 469 kts 180°
2026-05-01 11:28 12.97098 121.03709 34217 ft 471 kts 180°
2026-05-01 11:28 12.93847 121.03744 34628 ft 469 kts 181°
2026-05-01 11:28 12.90600 121.03772 35123 ft 465 kts 181°
2026-05-01 11:29 12.84263 121.03827 35888 ft 461 kts 181°
2026-05-01 11:29 12.81059 121.03856 36207 ft 460 kts 181°
2026-05-01 11:29 12.74695 121.03918 36784 ft 460 kts 181°
2026-05-01 11:30 12.71487 121.03950 37049 ft 460 kts 181°
2026-05-01 11:30 12.68330 121.03981 37280 ft 460 kts 181°
2026-05-01 11:30 12.65140 121.04013 37479 ft 461 kts 181°
2026-05-01 11:30 12.61933 121.04045 37665 ft 463 kts 181°
2026-05-01 11:31 12.58718 121.04077 37855 ft 464 kts 181°
2026-05-01 11:31 12.55483 121.04110 38047 ft 465 kts 181°
2026-05-01 11:31 12.52256 121.04143 38233 ft 466 kts 181°
2026-05-01 11:31 12.49053 121.04176 38410 ft 467 kts 181°
2026-05-01 11:32 12.45813 121.04227 38583 ft 469 kts 179°
2026-05-01 11:32 12.42575 121.04562 38746 ft 471 kts 172°
2026-05-01 11:32 12.39370 121.05286 38885 ft 473 kts 165°
2026-05-01 11:33 12.33318 121.07876 38896 ft 475 kts 151°
2026-05-01 11:33 12.28048 121.11836 38900 ft 474 kts 139°
2026-05-01 11:34 12.24845 121.14888 38900 ft 471 kts 137°